| time (UTC) | temp F | wind direction | speed knots | gust knots | rain 1hr in | rain 24hr in | rain mn in | humidity % | barometer mb |
| 20260505014615 | 77 | 49 | 0.9 | 1.7 | 0.00 | 0.00 | 0.21 | 90 | 1007.0 |
| 20260505014114 | 76 | 41 | 1.7 | 1.7 | 0.00 | 0.00 | 0.21 | 90 | 1007.0 |
| 20260505013614 | 76 | 53 | 1.7 | 1.7 | 0.00 | 0.00 | 0.21 | 90 | 1007.0 |
| 20260505013115 | 76 | 54 | 0.9 | 1.7 | 0.00 | 0.00 | 0.21 | 90 | 1007.0 |
| 20260505012614 | 76 | 55 | 0.9 | 0.9 | 0.00 | 0.00 | 0.21 | 90 | 1007.0 |
| 20260505012115 | 76 | 51 | 1.7 | 1.7 | 0.00 | 0.00 | 0.21 | 90 | 1007.0 |
| 20260505011614 | 76 | 43 | 0.9 | 1.7 | 0.00 | 0.00 | 0.21 | 91 | 1007.0 |
| 20260505011114 | 76 | 49 | 0.9 | 0.9 | 0.00 | 0.00 | 0.21 | 91 | 1007.0 |
| 20260505010614 | 76 | 57 | 0.9 | 1.7 | 0.00 | 0.00 | 0.21 | 91 | 1007.0 |
| 20260505010120 | 76 | 39 | 0.9 | 1.7 | 0.00 | 0.00 | 0.21 | 91 | 1007.0 |
| 20260505005614 | 76 | 47 | 1.7 | 1.7 | 0.00 | 0.00 | 0.21 | 91 | 1007.0 |
| 20260505005114 | 76 | 51 | 0.9 | 0.9 | 0.00 | 0.00 | 0.21 | 91 | 1007.0 |
| 20260505004614 | 76 | 40 | 1.7 | 1.7 | 0.00 | 0.00 | 0.21 | 91 | 1007.0 |
| 20260505004114 | 76 | 49 | 0.9 | 1.7 | 0.00 | 0.00 | 0.21 | 91 | 1007.0 |
| 20260504215115 | 76 | 66 | 0.9 | 0.9 | 0.00 | 0.00 | 0.21 | 91 | 1006.0 |
| 20260504214614 | 76 | 69 | 1.7 | 1.7 | 0.00 | 0.00 | 0.21 | 91 | 1006.0 |
| 20260504214114 | 75 | 60 | 1.7 | 1.7 | 0.00 | 0.00 | 0.21 | 91 | 1006.0 |
| 20260504213614 | 75 | 62 | 0.9 | 0.9 | 0.00 | 0.00 | 0.21 | 91 | 1006.0 |
| 20260504213114 | 75 | 73 | 1.7 | 2.6 | 0.00 | 0.00 | 0.21 | 91 | 1006.0 |
| 20260504212615 | 75 | 58 | 0.9 | 0.9 | 0.00 | 0.00 | 0.21 | 91 | 1006.0 |
| 20260504212114 | 75 | 59 | 1.7 | 1.7 | 0.00 | 0.00 | 0.21 | 91 | 1006.0 |
| 20260504211616 | 75 | 58 | 0.9 | 0.9 | 0.07 | 0.00 | 0.21 | 91 | 1006.0 |
| 20260504211114 | 75 | 51 | 1.7 | 2.6 | 0.07 | 0.00 | 0.21 | 91 | 1006.0 |
| 20260504210614 | 75 | 56 | 0.9 | 0.9 | 0.07 | 0.00 | 0.21 | 90 | 1006.0 |
| 20260504210114 | 75 | 53 | 0.9 | 0.9 | 0.00 | 0.00 | 0.20 | 90 | 1006.0 |
| 20260504205615 | 75 | 59 | 0.9 | 0.9 | 0.05 | 0.00 | 0.20 | 90 | 1006.0 |
| 20260504205114 | 75 | 59 | 0.9 | 0.9 | 0.05 | 0.00 | 0.20 | 90 | 1006.0 |
| 20260504204614 | 75 | 70 | 0.9 | 0.9 | 0.07 | 0.00 | 0.19 | 90 | 1006.0 |
| 20260504204115 | 75 | 43 | 3.5 | 4.3 | 0.12 | 0.00 | 0.19 | 90 | 1007.0 |
| 20260504203615 | 75 | 65 | 0.9 | 0.9 | 0.05 | 0.00 | 0.18 | 90 | 1007.0 |
| 20260504203114 | 75 | 61 | 0.9 | 0.9 | 0.07 | 0.00 | 0.17 | 90 | 1007.0 |
| 20260504202615 | 75 | 54 | 3.5 | 5.2 | 0.12 | 0.00 | 0.17 | 90 | 1007.0 |
| 20260504202114 | 75 | 48 | 2.6 | 2.6 | 0.12 | 0.00 | 0.16 | 90 | 1007.0 |
| 20260504201614 | 75 | 52 | 0.9 | 1.7 | 0.19 | 0.00 | 0.15 | 90 | 1007.0 |
| 20260504201114 | 75 | 27 | 2.6 | 5.2 | 0.19 | 0.00 | 0.14 | 90 | 1007.0 |
| 20260504200615 | 75 | 65 | 1.7 | 1.7 | 0.12 | 0.00 | 0.12 | 90 | 1007.0 |
| 20260504200115 | 75 | 60 | 1.7 | 1.7 | 0.12 | 0.00 | 0.11 | 90 | 1007.0 |
| 20260504195615 | 75 | 62 | 0.9 | 1.7 | 0.19 | 0.00 | 0.10 | 90 | 1007.0 |
| 20260504195114 | 75 | 52 | 2.6 | 2.6 | 0.17 | 0.00 | 0.09 | 90 | 1007.0 |
| 20260504160115 | 85 | 100 | 1.7 | 1.7 | 0.00 | 0.00 | 0.00 | 76 | 1008.0 |
| 20260504151115 | 85 | 57 | 0.9 | 0.9 | 0.00 | 0.00 | 0.00 | 73 | 1006.0 |
| 20260504150614 | 85 | 54 | 0.9 | 0.9 | 0.00 | 0.00 | 0.00 | 73 | 1006.0 |
| 20260504150117 | 85 | 40 | 2.6 | 2.6 | 0.00 | 0.00 | 0.00 | 73 | 1006.0 |
| 20260504141115 | 86 | 63 | 1.7 | 2.6 | 0.00 | 0.00 | 0.00 | 73 | 1005.0 |
| 20260504140615 | 86 | 10 | 3.5 | 6.1 | 0.00 | 0.00 | 0.00 | 73 | 1005.0 |
| 20260504140115 | 87 | 20 | 0.9 | 2.6 | 0.00 | 0.00 | 0.00 | 73 | 1005.0 |
| 20260504130615 | 88 | 51 | 0.9 | 1.7 | 0.00 | 0.00 | 0.00 | 72 | 1004.0 |
| 20260504130116 | 88 | 54 | 0.9 | 0.9 | 0.00 | 0.00 | 0.00 | 71 | 1004.0 |
| 20260504120114 | 92 | 62 | 1.7 | 1.7 | 0.00 | 0.00 | 0.00 | 69 | 1003.0 |
| 20260504110615 | 95 | 60 | 0.0 | 0.0 | 0.00 | 0.00 | 0.00 | 57 | 1003.0 |
| 20260504110114 | 96 | 46 | 1.7 | 1.7 | 0.00 | 0.00 | 0.00 | 55 | 1003.0 |
| 20260504100614 | 96 | 45 | 1.7 | 1.7 | 0.00 | 0.00 | 0.00 | 55 | 1003.0 |
| 20260504100114 | 95 | 61 | 0.9 | 0.9 | 0.00 | 0.00 | 0.00 | 56 | 1003.0 |
| 20260504090114 | 95 | 47 | 2.6 | 4.3 | 0.00 | 0.00 | 0.00 | 57 | 1004.0 |
| 20260504081615 | 93 | 42 | 4.3 | 5.2 | 0.00 | 0.00 | 0.00 | 59 | 1005.0 |
| 20260504081115 | 94 | 36 | 3.5 | 5.2 | 0.00 | 0.00 | 0.00 | 59 | 1005.0 |
| 20260504080615 | 95 | 29 | 2.6 | 2.6 | 0.00 | 0.00 | 0.00 | 57 | 1005.0 |
| 20260504080115 | 95 | 57 | 2.6 | 4.3 | 0.00 | 0.00 | 0.00 | 57 | 1005.0 |
| 20260504070114 | 94 | 64 | 0.9 | 0.9 | 0.00 | 0.00 | 0.00 | 53 | 1007.0 |
| 20260504060114 | 91 | 228 | 3.5 | 4.3 | 0.00 | 0.00 | 0.00 | 59 | 1008.0 |
| 20260504050614 | 90 | 216 | 5.2 | 6.1 | 0.00 | 0.00 | 0.00 | 60 | 1008.0 |
| 20260504050114 | 91 | 257 | 4.3 | 5.2 | 0.00 | 0.00 | 0.00 | 58 | 1009.0 |
| 20260504045614 | 89 | 154 | 3.5 | 4.3 | 0.00 | 0.00 | 0.00 | 60 | 1008.0 |
| 20260504045114 | 89 | 236 | 3.5 | 5.2 | 0.00 | 0.00 | 0.00 | 61 | 1009.0 |
| 20260504044614 | 89 | 209 | 4.3 | 7.0 | 0.00 | 0.00 | 0.00 | 60 | 1009.0 |
| 20260504044115 | 90 | 59 | 2.6 | 4.3 | 0.00 | 0.00 | 0.00 | 59 | 1009.0 |
| 20260504043618 | 89 | 84 | 0.9 | 0.9 | 0.00 | 0.00 | 0.00 | 60 | 1009.0 |
| 20260504043114 | 90 | 278 | 3.5 | 4.3 | 0.00 | 0.00 | 0.00 | 59 | 1009.0 |
| 20260504042614 | 90 | 64 | 1.7 | 1.7 | 0.00 | 0.00 | 0.00 | 59 | 1009.0 |
| 20260504042114 | 89 | 277 | 3.5 | 5.2 | 0.00 | 0.00 | 0.00 | 60 | 1009.0 |
| 20260504041615 | 89 | 244 | 3.5 | 4.3 | 0.00 | 0.00 | 0.00 | 60 | 1009.0 |
| 20260504041114 | 88 | 69 | 2.6 | 5.2 | 0.00 | 0.00 | 0.00 | 62 | 1009.0 |
| 20260504040614 | 88 | 166 | 3.5 | 4.3 | 0.00 | 0.00 | 0.00 | 62 | 1009.0 |
| 20260504040114 | 88 | 70 | 2.6 | 4.3 | 0.00 | 0.00 | 0.00 | 61 | 1009.0 |
| 20260504035614 | 89 | 59 | 1.7 | 2.6 | 0.00 | 0.00 | 0.00 | 60 | 1009.0 |
| 20260504035114 | 89 | 207 | 4.3 | 7.0 | 0.00 | 0.00 | 0.00 | 59 | 1009.0 |
| 20260504034614 | 89 | 59 | 1.7 | 2.6 | 0.00 | 0.00 | 0.00 | 58 | 1009.0 |
| 20260504034114 | 90 | 105 | 1.7 | 1.7 | 0.00 | 0.00 | 0.00 | 55 | 1009.0 |
| 20260504033615 | 90 | 164 | 4.3 | 5.2 | 0.00 | 0.00 | 0.00 | 55 | 1009.0 |
| 20260504032635 | 88 | 337 | 2.6 | 2.6 | 0.00 | 0.00 | 0.00 | 56 | 1008.0 |
| 20260504032114 | 88 | 111 | 2.6 | 2.6 | 0.00 | 0.00 | 0.00 | 59 | 1008.0 |
| 20260504031614 | 89 | 110 | 1.7 | 1.7 | 0.00 | 0.00 | 0.00 | 56 | 1008.0 |
| 20260504031115 | 90 | 52 | 0.9 | 0.9 | 0.00 | 0.00 | 0.00 | 54 | 1008.0 |
| 20260504030614 | 90 | 52 | 0.0 | 0.0 | 0.00 | 0.00 | 0.00 | 53 | 1008.0 |
| 20260504030115 | 89 | 52 | 0.0 | 0.9 | 0.00 | 0.00 | 0.00 | 55 | 1008.0 |
| 20260504025615 | 88 | 52 | 0.0 | 0.9 | 0.00 | 0.00 | 0.00 | 56 | 1008.0 |
| 20260504025114 | 88 | 52 | 0.0 | 0.0 | 0.00 | 0.00 | 0.00 | 57 | 1008.0 |
| 20260504024614 | 88 | 52 | 0.9 | 0.9 | 0.00 | 0.00 | 0.00 | 59 | 1007.0 |
| 20260504024114 | 87 | 53 | 0.9 | 0.9 | 0.00 | 0.00 | 0.00 | 61 | 1007.0 |
| 20260504023614 | 86 | 49 | 1.7 | 1.7 | 0.00 | 0.00 | 0.00 | 62 | 1007.0 |
| 20260504023115 | 86 | 67 | 4.3 | 4.3 | 0.00 | 0.00 | 0.00 | 62 | 1007.0 |
| 20260504022614 | 85 | 72 | 0.9 | 1.7 | 0.00 | 0.00 | 0.00 | 63 | 1007.0 |
| 20260504022114 | 85 | 71 | 1.7 | 1.7 | 0.00 | 0.00 | 0.00 | 65 | 1007.0 |
| 20260504021614 | 85 | 68 | 1.7 | 1.7 | 0.00 | 0.00 | 0.00 | 64 | 1007.0 |
| 20260504021115 | 84 | 72 | 0.9 | 1.7 | 0.00 | 0.00 | 0.00 | 66 | 1007.0 |
| 20260504020614 | 84 | 57 | 0.0 | 0.0 | 0.00 | 0.00 | 0.00 | 69 | 1007.0 |
| 20260504020114 | 83 | 58 | 1.7 | 1.7 | 0.00 | 0.00 | 0.00 | 69 | 1007.0 |
| 20260504015615 | 82 | 61 | 0.9 | 1.7 | 0.00 | 0.00 | 0.00 | 70 | 1007.0 |
| 20260504015114 | 82 | 74 | 2.6 | 2.6 | 0.00 | 0.00 | 0.00 | 71 | 1007.0 |